Wind_Speed
35 32 27 28 28 28 30 32 35 35 35 38 41 41 41 42 44 44 45 45 47 48 50 51 52 52 54 56 56 54 55 57 56 56 57 59 60 58 55 56 57 56 56
35 33 32 32 32 33 32 32 33 35 36 36 38 39 43 43 43 44 45 46 48 51 54 54 52 52 53 54 51 50 51 51 52 53 50 49 46 47 48 48 49 47 49
36 33 36 37 37 39 41 40 39 40 40 40 40 41 43 46 44 45 48 50 53 55 56 57 54 52 50 51 46 44 45 46 46 45 46 43 45 44 45 45 45 43 43
31 32 32 35 42 45 46 46 47 45 44 43 44 44 43 46 50 54 56 58 58 58 57 55 53 50 48 44 41 41 45 45 45 46 41 42 43 43 43 42 42 43 42
36 38 42 44 45 49 50 50 50 51 50 50 50 49 51 54 53 54 56 57 57 55 52 52 52 48 44 39 40 41 45 46 45 41 41 41 39 43 43 42 42 41 42
42 44 47 48 48 49 48 52 53 54 54 51 53 55 58 58 57 57 55 55 55 52 51 50 49 45 40 39 41 44 45 42 42 43 43 40 42 46 44 43 42 42 41
47 46 50 50 50 49 47 49 52 55 53 55 56 59 59 60 60 58 55 53 53 51 49 48 46 42 39 41 43 41 44 44 46 40 42 42 45 44 45 44 44 42 43
51 47 49 50 53 54 54 55 52 53 57 60 61 63 62 63 61 53 52 50 50 49 47 45 43 41 41 42 36 37 43 43 39 43 43 43 46 49 48 47 43 43 43
50 50 51 53 55 57 54 59 60 60 61 66 68 66 64 60 54 49 45 46 48 47 44 42 39 38 40 38 38 44 47 49 47 47 45 47 47 47 47 45 45 45 46
51 53 55 59 59 59 61 62 63 67 67 68 65 64 60 50 44 42 40 45 45 42 39 37 37 35 36 38 40 47 50 50 49 46 48 49 50 49 45 45 45 47 48
61 59 60 61 60 60 64 64 69 68 68 66 63 56 47 43 41 37 40 42 41 37 36 37 38 41 42 40 41 49 46 46 48 51 55 57 52 52 47 45 46 46 46
64 65 66 66 67 66 68 67 69 68 65 60 52 46 42 40 38 38 39 40 39 37 37 38 39 42 43 41 42 47 49 52 53 56 52 49 53 52 49 49 47 46 46
63 63 66 64 65 68 66 68 67 62 54 51 47 41 39 38 39 38 39 38 38 37 38 39 41 45 48 47 44 49 51 54 54 51 52 54 58 54 54 53 51 49 47
64 67 65 67 68 64 64 61 59 53 50 49 40 38 37 39 40 40 39 37 36 37 38 39 41 44 42 43 46 50 54 52 54 53 58 62 64 61 57 57 54 52 52
66 67 68 64 64 60 53 52 51 49 46 39 38 36 37 40 42 42 41 39 37 37 38 41 44 47 47 50 50 52 54 56 61 64 65 68 66 68 62 60 58 58 59
68 68 63 61 55 49 47 49 50 45 38 35 36 37 40 39 40 41 42 41 38 38 38 42 46 49 54 54 58 58 64 66 66 69 70 69 67 67 65 60 61 63 65
64 60 58 50 46 44 47 48 46 37 33 34 36 39 38 39 38 39 42 42 40 39 40 42 46 50 53 57 64 68 72 72 72 72 71 65 67 67 64 66 69 69 68
54 49 45 42 43 44 47 43 36 34 34 36 39 39 38 38 37 38 39 42 42 41 41 42 45 51 56 61 65 67 68 69 69 67 67 69 67 66 68 71 71 68 68
43 41 38 40 42 45 45 35 36 35 36 39 38 38 37 37 37 38 38 39 42 43 43 44 46 50 56 58 60 61 63 62 64 65 66 66 68 70 72 71 69 72 72
35 36 36 39 44 44 35 35 36 38 39 38 38 37 36 36 38 39 40 41 43 43 44 46 49 51 53 54 56 58 60 64 64 66 68 71 73 73 73 73 75 77 78
34 35 34 37 36 32 31 33 36 37 38 38 38 38 37 37 37 39 43 44 44 45 47 48 49 51 54 55 57 60 63 67 68 71 73 74 75 76 76 79 82 83 86
34 36 37 34 29 31 30 32 35 36 37 38 39 39 39 38 39 41 42 43 44 47 49 51 54 57 59 61 62 64 67 72 73 75 75 77 77 79 83 86 88 91 92
33 32 30 24 26 30 33 34 35 37 37 37 38 40 41 41 43 44 44 45 46 49 50 52 56 58 62 66 68 68 70 70 72 77 79 82 85 87 90 93 95 98 100
28 27 24 25 23 25 26 28 31 37 39 40 41 43 44 45 46 47 48 49 50 51 52 56 59 62 64 68 72 76 77 77 78 76 82 87 90 92 96 101 103 105 106
29 26 24 24 24 25 26 27 30 32 35 38 41 42 44 45 47 48 51 53 55 56 57 60 63 66 68 71 73 77 80 84 87 88 84 90 94 97 96 99 102 105 109
29 29 29 26 27 28 30 32 34 36 38 40 42 44 46 49 51 52 53 56 59 61 64 67 69 72 74 77 79 81 83 87 90 90 86 84 86 93 99 102 107 110 115
Wind_Direction
268 268 271 277 282 282 282 283 283 285 289 284 285 284 284 281 282 281 279 282 282 282 284 284 280 274 270 268 267 268 269 270 271 273 275 277 278 279 278 278 277 276 274
264 266 271 274 278 281 285 292 293 288 290 289 291 289 285 284 282 281 280 280 284 286 283 286 281 274 270 265 267 267 269 270 271 275 277 279 280 279 282 282 278 278 277
264 265 271 275 279 284 283 285 286 289 285 282 283 286 291 288 280 279 281 283 282 288 284 284 281 270 264 263 265 265 266 268 276 278 281 280 282 286 285 281 281 280 279
261 266 275 277 281 284 284 280 282 283 285 287 283 284 284 290 284 281 283 283 283 286 286 283 279 267 261 259 259 255 259 267 275 278 280 281 286 287 288 288 282 280 280
267 275 276 279 280 284 284 283 282 282 283 282 283 280 284 288 290 283 282 284 283 285 283 281 272 263 257 254 249 250 258 268 275 278 281 281 284 287 287 287 286 280 275
268 274 279 281 282 284 287 286 283 280 282 285 285 286 286 285 288 285 283 285 284 282 282 276 265 257 253 246 246 251 261 266 271 274 279 282 282 284 284 287 284 281 278
269 275 275 278 279 284 285 289 286 280 281 285 286 289 288 286 288 283 282 282 282 282 281 272 260 251 248 244 246 257 262 270 274 277 283 284 291 290 290 284 283 280 280
269 275 275 277 281 285 288 291 290 284 285 287 288 290 288 287 284 281 281 281 281 281 277 266 254 246 246 250 255 261 267 263 277 280 282 283 289 291 290 283 283 280 280
270 275 276 281 284 287 287 289 288 286 287 291 289 290 289 285 281 279 278 279 280 282 274 262 249 246 248 255 260 266 260 260 277 283 278 286 291 292 293 289 283 281 277
271 274 279 282 286 287 286 288 291 292 291 293 291 290 286 282 278 276 277 280 282 281 270 257 249 243 243 249 249 259 259 264 272 273 280 285 288 290 290 291 289 283 278
273 276 279 283 285 285 288 289 292 294 293 292 289 287 282 279 276 274 278 280 279 273 263 250 244 240 242 250 257 262 265 263 264 273 277 279 282 287 291 290 290 286 278
271 273 277 281 283 285 288 290 291 291 291 290 287 284 281 275 271 274 278 278 274 266 258 248 242 240 242 245 262 261 263 263 267 273 273 281 284 285 288 288 290 289 282
272 274 276 280 282 284 285 288 290 290 286 287 287 283 280 275 275 277 278 279 274 266 260 251 247 243 245 252 262 263 262 266 266 268 277 281 284 284 288 287 289 289 287
270 272 276 278 283 283 285 286 285 283 284 287 282 279 278 278 281 281 279 277 273 268 258 254 251 247 244 254 263 264 263 265 267 273 277 280 282 285 286 287 288 287 284
268 272 276 279 282 283 281 282 283 284 283 281 280 276 277 284 287 284 283 276 270 268 260 255 251 245 246 252 260 264 265 267 271 273 277 280 281 284 284 285 283 286 286
268 272 275 279 281 277 280 286 285 282 279 276 274 278 282 283 286 286 283 277 270 267 261 257 255 250 248 253 260 261 265 267 272 272 275 279 281 281 283 281 282 284 283
270 271 274 276 275 279 285 287 286 278 275 271 276 279 283 283 283 284 282 279 273 268 265 261 256 255 257 258 261 262 265 268 271 273 277 276 279 281 284 286 285 285 282
267 268 269 272 274 281 285 285 278 277 270 276 280 281 285 284 283 284 281 280 277 272 270 266 261 257 257 259 263 266 268 270 272 273 276 277 277 279 282 283 283 282 282
261 264 270 274 279 280 282 276 274 271 272 279 284 289 289 285 284 285 282 282 281 277 272 270 267 263 262 264 267 269 270 273 275 276 276 278 279 281 281 280 280 281 279
258 265 272 280 280 278 268 273 272 271 282 286 287 289 290 288 289 288 286 284 281 279 277 274 272 272 271 270 272 275 275 275 275 275 277 278 278 279 279 276 276 277 276
260 266 270 280 276 268 273 274 275 280 285 285 287 293 294 294 296 296 293 291 288 284 283 281 279 277 276 275 273 274 275 276 278 279 279 279 279 280 279 279 279 279 279
262 266 267 278 268 272 273 280 282 283 286 289 291 296 295 295 296 296 297 296 293 290 287 284 283 282 281 281 279 278 277 280 280 280 281 280 280 279 280 280 280 281 281
259 260 263 280 275 272 280 285 283 284 290 295 296 295 296 294 293 294 294 295 295 293 290 289 287 286 285 285 284 281 280 280 280 283 284 284 285 285 285 285 285 284 283
257 262 271 271 280 284 288 294 294 287 288 290 292 293 293 295 293 292 293 292 291 291 290 289 288 287 287 286 287 287 286 283 280 278 281 282 283 284 285 285 283 282 281
258 263 270 273 278 279 284 293 297 296 296 296 294 294 294 295 295 294 294 294 293 292 291 290 288 289 290 289 287 285 286 285 284 283 280 279 281 283 282 282 282 281 281
263 266 269 277 283 291 298 301 305 304 303 302 301 299 298 297 297 297 296 295 295 294 294 294 294 293 293 291 290 288 287 286 284 284 285 284 282 282 283 284 282 281 281
Height
10893 10894 10895 10895 10896 10896 10895 10895 10895 10894 10894 10893 10893 10892 10891 10889 10888 10886 10884 10882 10880 10878 10876 10874 10871 10869 10867 10865 10864 10864 10862 10860 10861 10860 10860 10859 10857 10857 10856 10855 10853 10852 10852
10888 10889 10890 10890 10890 10890 10890 10890 10889 10889 10888 10887 10885 10884 10883 10881 10879 10877 10876 10874 10871 10869 10866 10862 10861 10858 10857 10855 10855 10854 10853 10853 10852 10852 10851 10849 10849 10848 10847 10845 10843 10842 10841
10883 10884 10884 10885 10885 10884 10884 10883 10883 10882 10882 10881 10879 10878 10876 10873 10871 10869 10867 10864 10862 10859 10855 10851 10849 10847 10847 10846 10847 10847 10845 10845 10845 10844 10843 10842 10840 10840 10839 10837 10835 10834 10832
10876 10878 10878 10878 10878 10877 10876 10876 10876 10875 10874 10873 10871 10869 10868 10865 10862 10860 10857 10854 10851 10848 10845 10841 10838 10836 10837 10839 10840 10839 10839 10838 10838 10837 10836 10835 10833 10832 10830 10829 10827 10825 10824
10870 10871 10872 10871 10870 10869 10869 10868 10867 10866 10865 10864 10862 10860 10857 10855 10852 10848 10846 10843 10840 10836 10833 10830 10827 10827 10828 10830 10831 10831 10831 10831 10830 10830 10829 10828 10826 10823 10822 10820 10818 10817 10816
10863 10863 10863 10862 10861 10861 10860 10860 10859 10857 10856 10854 10852 10849 10846 10843 10840 10837 10834 10831 10828 10824 10821 10818 10816 10816 10818 10821 10822 10822 10824 10823 10823 10823 10822 10820 10818 10816 10814 10812 10810 10809 10808
10855 10855 10854 10854 10853 10854 10853 10851 10849 10847 10846 10843 10840 10837 10834 10831 10828 10825 10822 10819 10816 10813 10809 10806 10806 10807 10809 10811 10814 10817 10818 10817 10817 10815 10813 10811 10809 10808 10805 10803 10802 10801 10799
10848 10845 10845 10846 10845 10845 10844 10842 10839 10837 10835 10831 10827 10825 10821 10818 10815 10813 10810 10808 10805 10802 10798 10796 10796 10798 10802 10806 10810 10811 10812 10810 10807 10806 10804 10802 10800 10798 10796 10794 10793 10791 10790
10839 10837 10839 10838 10838 10837 10835 10832 10829 10826 10823 10820 10816 10812 10809 10805 10803 10801 10799 10798 10795 10792 10789 10788 10789 10793 10797 10801 10803 10803 10801 10799 10798 10797 10795 10793 10791 10789 10786 10784 10783 10781 10780
10830 10830 10831 10830 10830 10828 10826 10823 10819 10815 10811 10807 10803 10799 10795 10794 10792 10792 10790 10789 10786 10783 10782 10783 10785 10788 10789 10790 10790 10790 10791 10791 10789 10787 10785 10784 10783 10780 10778 10775 10773 10771 10769
10821 10822 10823 10822 10821 10819 10816 10813 10809 10804 10799 10796 10792 10788 10786 10784 10783 10782 10781 10779 10776 10775 10774 10775 10775 10777 10778 10781 10782 10784 10783 10782 10780 10777 10775 10775 10774 10772 10769 10766 10764 10761 10758
10813 10814 10814 10813 10812 10808 10805 10802 10798 10795 10789 10785 10781 10778 10777 10776 10775 10773 10771 10769 10766 10765 10765 10766 10767 10769 10771 10773 10774 10774 10773 10772 10770 10768 10765 10764 10763 10761 10758 10756 10754 10751 10748
10805 10805 10804 10803 10801 10799 10796 10791 10787 10784 10780 10776 10773 10770 10770 10769 10767 10764 10761 10760 10759 10758 10757 10758 10759 10760 10762 10763 10764 10764 10763 10762 10760 10757 10754 10753 10752 10751 10748 10745 10742 10740 10738
10796 10795 10794 10792 10791 10788 10785 10781 10777 10775 10772 10768 10766 10765 10763 10761 10759 10757 10754 10751 10750 10749 10749 10750 10751 10752 10753 10754 10755 10754 10753 10750 10748 10746 10743 10742 10741 10739 10737 10734 10731 10729 10726
10786 10785 10784 10783 10780 10777 10774 10770 10768 10766 10763 10760 10759 10758 10756 10754 10751 10748 10746 10744 10742 10741 10740 10740 10741 10742 10743 10744 10744 10742 10740 10738 10737 10736 10734 10731 10728 10725 10722 10720 10718 10716 10714
10775 10775 10774 10772 10770 10768 10765 10761 10759 10756 10754 10753 10751 10750 10748 10745 10743 10740 10738 10735 10733 10732 10731 10731 10732 10732 10732 10733 10731 10730 10728 10726 10724 10723 10722 10718 10715 10711 10707 10704 10703 10701 10698
10765 10765 10764 10763 10761 10760 10756 10753 10749 10747 10746 10746 10745 10742 10739 10736 10734 10731 10729 10727 10724 10723 10723 10722 10722 10722 10722 10722 10720 10718 10715 10713 10710 10709 10708 10706 10702 10696 10693 10690 10686 10683 10679
10755 10755 10754 10753 10753 10751 10747 10745 10742 10741 10740 10739 10737 10734 10731 10728 10725 10723 10721 10719 10717 10715 10714 10713 10711 10710 10710 10709 10707 10705 10701 10698 10696 10694 10694 10690 10686 10683 10680 10675 10670 10666 10661
10746 10746 10746 10746 10745 10742 10740 10738 10736 10735 10733 10731 10729 10726 10723 10720 10717 10715 10712 10711 10709 10707 10705 10702 10700 10698 10697 10696 10694 10691 10687 10685 10682 10682 10677 10675 10669 10667 10663 10657 10654 10650 10644
10737 10738 10739 10738 10735 10733 10732 10731 10730 10728 10726 10724 10721 10718 10715 10712 10710 10707 10704 10702 10700 10698 10695 10693 10690 10687 10686 10684 10681 10678 10674 10670 10668 10665 10663 10657 10654 10649 10644 10639 10636 10630 10627
10729 10731 10732 10731 10727 10725 10726 10724 10722 10721 10719 10717 10714 10711 10707 10704 10701 10698 10696 10692 10690 10688 10685 10682 10679 10675 10672 10671 10669 10665 10662 10656 10653 10647 10645 10640 10635 10630 10623 10619 10613 10608 10604
10723 10724 10724 10723 10720 10720 10719 10717 10715 10714 10712 10709 10706 10702 10699 10696 10693 10690 10687 10683 10680 10676 10673 10670 10667 10663 10659 10656 10654 10652 10649 10639 10636 10630 10626 10620 10615 10611 10603 10597 10591 10584 10578
10716 10717 10717 10716 10714 10713 10711 10709 10707 10706 10704 10701 10698 10695 10691 10688 10685 10681 10677 10673 10670 10666 10662 10659 10655 10652 10646 10640 10636 10635 10633 10630 10625 10613 10606 10599 10594 10587 10578 10571 10563 10556 10549
10710 10710 10710 10709 10708 10706 10704 10702 10700 10698 10695 10693 10690 10686 10682 10678 10675 10671 10666 10662 10658 10654 10649 10645 10641 10636 10632 10625 10618 10612 10608 10607 10605 10609 10595 10581 10572 10565 10556 10547 10537 10528 10519
10703 10703 10703 10702 10701 10699 10697 10694 10692 10690 10687 10684 10680 10677 10673 10668 10663 10660 10655 10651 10646 10641 10635 10630 10624 10619 10614 10608 10601 10594 10586 10577 10570 10569 10577 10563 10553 10541 10531 10520 10509 10500 10487
10695 10696 10696 10695 10693 10691 10689 10686 10683 10681 10678 10674 10670 10667 10663 10658 10652 10648 10643 10638 10632 10626 10620 10613 10606 10599 10591 10583 10576 10569 10561 10553 10545 10537 10534 10533 10528 10518 10505 10495 10481 10469 10453